Location: *
(43.9905°S, 176.4941°W)
Time: 21:09:30
(UTC+00:00)

CARTOSAT-1 - Pass Details

Date: 08 December 2019
Orbit: 616 x 619 km, 97.8° (Epoch: 29 January)

Event Time Altitude Azimuth Distance (km) Brightness Sun altitude
Rises 10:06:12 0° 164° (SSE) 2,932 7.8 -20.1°
Reaches altitude 10° 10:08:27 10° 160° (SSE) 2,017 6.8 -20.2°
Maximum altitude 10:12:47 60° 80° (E) 722 3.7 -20.5°
Enters shadow 10:13:27 53° 40° (NE) 775 3.6 -20.6°
